,,Stat6,,Stat2,,Stat8,,Stat9,,Stat10,,Wind1,,Wind1,
time,status,PA1M_AVG,status,PR1M_SUM,status,RH1M_AVG,status,SR1M_AVG,status,TA1M_AVG,status,W1dAve1m,status,W1sAve1m,
2008-07-16, 00:00:00,VALID,917.075,VALID,0,VALID,100,VALID,-0.101885,VALID,18.9653,VALID,41,VALID,0,
2008-07-16, 00:01:00,VALID,917.057,VALID,0,VALID,100,VALID,-0.135847,VALID,18.962,VALID,41,VALID,0,
2008-07-16, 00:02:00,VALID,917.048,VALID,0,VALID,100,VALID,-0.186789,VALID,18.9782,VALID,41,VALID,0,
2008-07-16, 00:03:00,VALID,917.038,VALID,0,VALID,100,VALID,-0.135847,VALID,19.0012,VALID,41,VALID,0,
2008-07-16, 00:04:00,VALID,917.039,VALID,0,VALID,100,VALID,-0.101885,VALID,18.971,VALID,41,VALID,0,
2008-07-16, 00:05:00,VALID,917.042,VALID,0,VALID,100,VALID,-0.152827,VALID,18.965,VALID,41,VALID,0,
2008-07-16, 00:06:00,VALID,917.045,VALID,0,VALID,100,VALID,-0.152827,VALID,18.9683,VALID,41,VALID,0,
2008-07-16, 00:07:00,VALID,917.037,VALID,0,VALID,100,VALID,-0.118866,VALID,18.9882,VALID,41,VALID,0,
2008-07-16, 00:08:00,VALID,917.027,VALID,0,VALID,100,VALID,-0.101885,VALID,19.0014,VALID,41,VALID,0,
2008-07-16, 00:09:00,VALID,917.031,VALID,0,VALID,100,VALID,-0.135847,VALID,18.9905,VALID,41,VALID,0,
2008-07-16, 00:10:00,VALID,917.011,VALID,0,VALID,100,VALID,-0.118866,VALID,19.0109,VALID,41,VALID,0,
2008-07-16, 00:11:00,VALID,917.009,VALID,0,VALID,100,VALID,-0.101885,VALID,19.0102,VALID,41,VALID,0,
2008-07-16, 00:12:00,VALID,916.997,VALID,0,VALID,100,VALID,-0.152827,VALID,19.0237,VALID,41,VALID,0,
2008-07-16, 00:13:00,VALID,916.997,VALID,0,VALID,100,VALID,-0.118866,VALID,19.0202,VALID,41,VALID,0,
2008-07-16, 00:14:00,VALID,916.988,VALID,0,VALID,100,VALID,-0.118866,VALID,19.0267,VALID,41,VALID,0,
2008-07-16, 00:15:00,VALID,916.99,VALID,0,VALID,100,VALID,-0.101885,VALID,19.0364,VALID,41,VALID,0,
2008-07-16, 00:16:00,VALID,916.982,VALID,0,VALID,100,VALID,-0.101885,VALID,19.0195,VALID,41,VALID,0,
2008-07-16, 00:17:00,VALID,916.975,VALID,0,VALID,100,VALID,-0.101885,VALID,19.0167,VALID,41,VALID,0,
2008-07-16, 00:18:00,VALID,916.963,VALID,0,VALID,100,VALID,-0.101885,VALID,19.0199,VALID,41,VALID,0,
2008-07-16, 00:19:00,VALID,916.962,VALID,0.2,VALID,100,VALID,-0.118866,VALID,19.0239,VALID,41,VALID,0,
2008-07-16, 00:20:00,VALID,916.947,VALID,0,VALID,100,VALID,-0.101885,VALID,19.0264,VALID,41,VALID,0,
2008-07-16, 00:21:00,VALID,916.932,VALID,0,VALID,100,VALID,-0.101885,VALID,19.0199,VALID,41,VALID,0,
2008-07-16, 00:22:00,VALID,916.928,VALID,0,VALID,100,VALID,-0.135847,VALID,19.0366,VALID,41,VALID,0,
2008-07-16, 00:23:00,VALID,916.913,VALID,0,VALID,100,VALID,-0.118866,VALID,19.0499,VALID,41,VALID,0,
2008-07-16, 00:24:00,VALID,916.909,VALID,0,VALID,100,VALID,-0.118866,VALID,19.0589,VALID,41,VALID,0,
2008-07-16, 00:25:00,VALID,916.896,VALID,0,VALID,100,VALID,-0.101885,VALID,19.0594,VALID,41,VALID,0,
2008-07-16, 00:26:00,VALID,916.884,VALID,0,VALID,100,VALID,-0.135847,VALID,19.0651,VALID,41,VALID,0,
2008-07-16, 00:27:00,VALID,916.87,VALID,0,VALID,100,VALID,-0.118866,VALID,19.0723,VALID,41,VALID,0,
2008-07-16, 00:28:00,VALID,916.865,VALID,0,VALID,100,VALID,-0.101885,VALID,19.0813,VALID,41,VALID,0,
2008-07-16, 00:29:00,VALID,916.865,VALID,0,VALID,100,VALID,-0.0849042,VALID,19.0843,VALID,41,VALID,0,
2008-07-16, 00:30:00,VALID,916.858,VALID,0,VALID,100,VALID,-0.0679233,VALID,19.1045,VALID,41,VALID,0,
2008-07-16, 00:31:00,VALID,916.859,VALID,0,VALID,100,VALID,-0.135847,VALID,19.101,VALID,41,VALID,0,
2008-07-16, 00:32:00,VALID,916.851,VALID,0,VALID,100,VALID,-0.118866,VALID,19.101,VALID,41,VALID,0,
2008-07-16, 00:33:00,VALID,916.837,VALID,0,VALID,100,VALID,-0.101885,VALID,19.0876,VALID,41,VALID,0,
2008-07-16, 00:34:00,VALID,916.796,VALID,0,VALID,100,VALID,-0.101885,VALID,19.0813,VALID,41,VALID,0,
2008-07-16, 00:35:00,VALID,916.772,VALID,0,VALID,100,VALID,-0.135847,VALID,19.0781,VALID,41,VALID,0,
2008-07-16, 00:36:00,VALID,916.753,VALID,0,VALID,100,VALID,-0.101885,VALID,19.0688,VALID,41,VALID,0,
2008-07-16, 00:37:00,VALID,916.731,VALID,0,VALID,100,VALID,-0.118866,VALID,19.0721,VALID,41,VALID,0,
2008-07-16, 00:38:00,VALID,916.704,VALID,0,VALID,100,VALID,-0.118866,VALID,19.0359,VALID,46,VALID,0,
2008-07-16, 00:39:00,VALID,916.677,VALID,0,VALID,100,VALID,-0.101885,VALID,19.0324,VALID,49,VALID,0.344295,
2008-07-16, 00:40:00,VALID,916.659,VALID,0,VALID,100,VALID,-0.118866,VALID,19.0394,VALID,46,VALID,0.277257,
2008-07-16, 00:41:00,VALID,916.637,VALID,0,VALID,100,VALID,-0.101885,VALID,19.0494,VALID,46,VALID,0,
2008-07-16, 00:42:00,VALID,916.621,VALID,0,VALID,100,VALID,-0.135847,VALID,19.0434,VALID,47,VALID,0,
2008-07-16, 00:43:00,VALID,916.604,VALID,0,VALID,100,VALID,-0.118866,VALID,19.0107,VALID,42,VALID,0.227471,
2008-07-16, 00:44:00,VALID,916.585,VALID,0,VALID,100,VALID,-0.101885,VALID,19.0072,VALID,41,VALID,0,
2008-07-16, 00:45:00,VALID,916.561,VALID,0,VALID,100,VALID,-0.118866,VALID,19.0102,VALID,41,VALID,0,
2008-07-16, 00:46:00,VALID,916.533,VALID,0,VALID,100,VALID,-0.135847,VALID,19.0207,VALID,36,VALID,0,
2008-07-16, 00:47:00,VALID,916.506,VALID,0,VALID,100,VALID,-0.135847,VALID,19.0074,VALID,32,VALID,0.0251953,
2008-07-16, 00:48:00,VALID,916.474,VALID,0,VALID,100,VALID,-0.135847,VALID,19.0007,VALID,38,VALID,0.640092,
2008-07-16, 00:49:00,VALID,916.458,VALID,0,VALID,100,VALID,-0.101885,VALID,19.0007,VALID,35,VALID,0.526786,
2008-07-16, 00:50:00,VALID,916.453,VALID,0,VALID,100,VALID,-0.101885,VALID,19.0174,VALID,31,VALID,0.567587,
2008-07-16, 00:51:00,VALID,916.441,VALID,0,VALID,100,VALID,-0.101885,VALID,19.013,VALID,26,VALID,0.722842,
2008-07-16, 00:52:00,VALID,916.434,VALID,0,VALID,100,VALID,-0.101885,VALID,19.0234,VALID,26,VALID,0.738009,
2008-07-16, 00:53:00,VALID,916.434,VALID,0,VALID,100,VALID,-0.101885,VALID,19.0005,VALID,21,VALID,0.93657,
2008-07-16, 00:54:00,VALID,916.414,VALID,0,VALID,100,VALID,-0.118866,VALID,19.004,VALID,28,VALID,0.982469,
2008-07-16, 00:55:00,VALID,916.395,VALID,0,VALID,100,VALID,-0.118866,VALID,19.0174,VALID,19,VALID,1.00618,
2008-07-16, 00:56:00,VALID,916.383,VALID,0,VALID,100,VALID,-0.101885,VALID,19.004,VALID,28,VALID,0.884588,
2008-07-16, 00:57:00,VALID,916.355,VALID,0,VALID,100,VALID,-0.118866,VALID,18.9977,VALID,25,VALID,0.648256,
2008-07-16, 00:58:00,VALID,916.335,VALID,0,VALID,100,VALID,-0.135847,VALID,19.0239,VALID,35,VALID,0.144531,
2008-07-16, 00:59:00,VALID,916.305,VALID,0,VALID,100,VALID,-0.118866,VALID,19.0204,VALID,35,VALID,0,
2008-07-16, 01:00:00,VALID,916.297,VALID,0,VALID,100,VALID,-0.135847,VALID,19.0396,VALID,35,VALID,0,
2008-07-16, 01:01:00,VALID,916.272,VALID,0,VALID,100,VALID,-0.169808,VALID,19.0431,VALID,35,VALID,0,
2008-07-16, 01:02:00,VALID,916.263,VALID,0,VALID,100,VALID,-0.118866,VALID,19.0554,VALID,35,VALID,0,
2008-07-16, 01:03:00,VALID,916.247,VALID,0,VALID,100,VALID,-0.118866,VALID,19.0818,VALID,35,VALID,0,
2008-07-16, 01:04:00,VALID,916.239,VALID,0,VALID,100,VALID,-0.101885,VALID,19.0756,VALID,35,VALID,0,
2008-07-16, 01:05:00,VALID,916.236,VALID,0,VALID,100,VALID,-0.152827,VALID,19.0783,VALID,35,VALID,0,
2008-07-16, 01:06:00,VALID,916.227,VALID,0,VALID,100,VALID,-0.118866,VALID,19.0818,VALID,35,VALID,0,
2008-07-16, 01:07:00,VALID,916.2,VALID,0,VALID,100,VALID,-0.152827,VALID,19.0848,VALID,35,VALID,0,
2008-07-16, 01:08:00,VALID,916.19,VALID,0,VALID,100,VALID,-0.101885,VALID,19.0818,VALID,35,VALID,0,
2008-07-16, 01:09:00,VALID,916.158,VALID,0,VALID,100,VALID,-0.118866,VALID,19.0916,VALID,35,VALID,0,
2008-07-16, 01:10:00,VALID,916.123,VALID,0,VALID,100,VALID,-0.0849042,VALID,19.0878,VALID,35,VALID,0,
2008-07-16, 01:11:00,VALID,916.111,VALID,0,VALID,100,VALID,-0.118866,VALID,19.1075,VALID,35,VALID,0,
2008-07-16, 01:12:00,VALID,916.092,VALID,0,VALID,100,VALID,-0.0849042,VALID,19.1138,VALID,35,VALID,0,
2008-07-16, 01:13:00,VALID,916.083,VALID,0,VALID,100,VALID,-0.101885,VALID,19.137,VALID,35,VALID,0,
2008-07-16, 01:14:00,VALID,916.075,VALID,0,VALID,100,VALID,-0.118866,VALID,19.153,VALID,35,VALID,0.0736607,
2008-07-16, 01:15:00,VALID,916.068,VALID,0,VALID,100,VALID,-0.101885,VALID,19.1462,VALID,35,VALID,0.0727983,
2008-07-16, 01:16:00,VALID,916.047,VALID,0,VALID,100,VALID,-0.101885,VALID,19.1592,VALID,35,VALID,0,
2008-07-16, 01:17:00,VALID,916.044,VALID,0,VALID,100,VALID,-0.135847,VALID,19.159,VALID,35,VALID,0,
2008-07-16, 01:18:00,VALID,916.036,VALID,0,VALID,100,VALID,-0.101885,VALID,19.1884,VALID,35,VALID,0,
2008-07-16, 01:19:00,VALID,916.024,VALID,0,VALID,100,VALID,-0.0849042,VALID,19.2243,VALID,34,VALID,0,
2008-07-16, 01:20:00,VALID,916.009,VALID,0,VALID,100,VALID,-0.101885,VALID,19.2174,VALID,31,VALID,0,
2008-07-16, 01:21:00,VALID,916.001,VALID,0,VALID,100,VALID,-0.101885,VALID,19.2014,VALID,31,VALID,0,
2008-07-16, 01:22:00,VALID,915.992,VALID,0,VALID,100,VALID,-0.101885,VALID,19.1852,VALID,31,VALID,0,
2008-07-16, 01:23:00,VALID,915.984,VALID,0,VALID,100,VALID,-0.0679233,VALID,19.1856,VALID,31,VALID,0,
2008-07-16, 01:24:00,VALID,915.964,VALID,0,VALID,100,VALID,-0.0679233,VALID,19.1752,VALID,31,VALID,0,
2008-07-16, 01:25:00,VALID,915.95,VALID,0,VALID,100,VALID,-0.152827,VALID,19.1919,VALID,31,VALID,0,
2008-07-16, 01:26:00,VALID,915.933,VALID,0,VALID,100,VALID,-0.0169808,VALID,19.2002,VALID,31,VALID,0,
2008-07-16, 01:27:00,VALID,915.907,VALID,0,VALID,100,VALID,0,VALID,19.1969,VALID,31,VALID,0,
2008-07-16, 01:28:00,VALID,915.895,VALID,0,VALID,100,VALID,0.0169808,VALID,19.1899,VALID,31,VALID,0,
2008-07-16, 01:29:00,VALID,915.89,VALID,0,VALID,100,VALID,0,VALID,19.2036,VALID,31,VALID,0,
2008-07-16, 01:30:00,VALID,915.884,VALID,0,VALID,100,VALID,0.0169808,VALID,19.1904,VALID,31,VALID,0,
2008-07-16, 01:31:00,VALID,915.877,VALID,0,VALID,100,VALID,0,VALID,19.1675,VALID,31,VALID,0,
2008-07-16, 01:32:00,VALID,915.86,VALID,0,VALID,100,VALID,-0.0169808,VALID,19.1647,VALID,31,VALID,0,
2008-07-16, 01:33:00,VALID,915.843,VALID,0,VALID,100,VALID,0.0509425,VALID,19.148,VALID,31,VALID,0,
2008-07-16, 01:34:00,VALID,915.821,VALID,0,VALID,100,VALID,0,VALID,19.1383,VALID,31,VALID,0,
2008-07-16, 01:35:00,VALID,915.8,VALID,0,VALID,100,VALID,0,VALID,19.1388,VALID,31,VALID,0,
2008-07-16, 01:36:00,VALID,915.78,VALID,0,VALID,100,VALID,-0.0169808,VALID,19.1325,VALID,31,VALID,0,
2008-07-16, 01:37:00,VALID,915.751,VALID,0,VALID,100,VALID,-0.0169808,VALID,19.1325,VALID,31,VALID,0,
2008-07-16, 01:38:00,VALID,915.726,VALID,0,VALID,100,VALID,0.0169808,VALID,19.1318,VALID,31,VALID,0,
2008-07-16, 01:39:00,VALID,915.706,VALID,0,VALID,100,VALID,0.0169808,VALID,19.1392,VALID,31,VALID,0,
2008-07-16, 01:40:00,VALID,915.683,VALID,0,VALID,100,VALID,0.0169808,VALID,19.1255,VALID,31,VALID,0,
2008-07-16, 01:41:00,VALID,915.666,VALID,0,VALID,100,VALID,-0.0169808,VALID,19.1263,VALID,31,VALID,0,
2008-07-16, 01:42:00,VALID,915.658,VALID,0,VALID,100,VALID,-0.0679233,VALID,19.1161,VALID,31,VALID,0,
2008-07-16, 01:43:00,VALID,915.646,VALID,0,VALID,100,VALID,-0.0679233,VALID,19.1198,VALID,31,VALID,0,
2008-07-16, 01:44:00,VALID,915.635,VALID,0,VALID,100,VALID,-0.0509425,VALID,19.1228,VALID,31,VALID,0,
2008-07-16, 01:45:00,VALID,915.618,VALID,0,VALID,100,VALID,-0.0509425,VALID,19.1133,VALID,90,VALID,0,
2008-07-16, 01:46:00,VALID,915.609,VALID,0,VALID,100,VALID,-0.0169808,VALID,19.0836,VALID,130,VALID,0.223958,
2008-07-16, 01:47:00,VALID,915.61,VALID,0,VALID,100,VALID,-0.0339617,VALID,19.0704,VALID,168,VALID,0.910857,
2008-07-16, 01:48:00,VALID,915.616,VALID,0,VALID,100,VALID,-0.0169808,VALID,19.0642,VALID,171,VALID,0.815476,
2008-07-16, 01:49:00,VALID,915.614,VALID,0,VALID,100,VALID,-0.0169808,VALID,19.0581,VALID,171,VALID,0.973474,
2008-07-16, 01:50:00,VALID,915.612,VALID,0,VALID,100,VALID,-0.0169808,VALID,19.0414,VALID,176,VALID,1.12393,
2008-07-16, 01:51:00,VALID,915.609,VALID,0,VALID,100,VALID,-0.0339617,VALID,19.0183,VALID,176,VALID,0.984375,
2008-07-16, 01:52:00,VALID,915.602,VALID,0,VALID,100,VALID,-0.0509425,VALID,19.0122,VALID,176,VALID,1.01254,
2008-07-16, 01:53:00,VALID,915.593,VALID,0,VALID,100,VALID,-0.0339617,VALID,18.9958,VALID,171,VALID,0.799543,
2008-07-16, 01:54:00,VALID,915.584,VALID,0,VALID,100,VALID,-0.0339617,VALID,18.9893,VALID,165,VALID,0.750391,
2008-07-16, 01:55:00,VALID,915.566,VALID,0,VALID,100,VALID,-0.0339617,VALID,18.9861,VALID,161,VALID,0.808008,
2008-07-16, 01:56:00,VALID,915.547,VALID,0,VALID,100,VALID,-0.0339617,VALID,18.9863,VALID,149,VALID,0.150856,
2008-07-16, 01:57:00,VALID,915.536,VALID,0,VALID,100,VALID,-0.0509425,VALID,18.9828,VALID,158,VALID,0.865513,
2008-07-16, 01:58:00,VALID,915.53,VALID,0,VALID,100,VALID,-0.0509425,VALID,18.9798,VALID,160,VALID,0.490141,
2008-07-16, 01:59:00,VALID,915.518,VALID,0,VALID,100,VALID,-0.0679233,VALID,18.987,VALID,133,VALID,0.599927,
2008-07-16, 02:00:00,VALID,915.516,VALID,0,VALID,100,VALID,-0.0679233,VALID,18.9803,VALID,136,VALID,0.790698,
2008-07-16, 02:01:00,VALID,915.492,VALID,0,VALID,100,VALID,-0.0339617,VALID,18.974,VALID,138,VALID,0.633507,
2008-07-16, 02:02:00,VALID,915.498,VALID,0,VALID,100,VALID,-0.0169808,VALID,18.9536,VALID,148,VALID,0.369855,
2008-07-16, 02:03:00,VALID,915.507,VALID,0,VALID,100,VALID,-0.0679233,VALID,18.9606,VALID,154,VALID,0,
2008-07-16, 02:04:00,VALID,915.503,VALID,0,VALID,100,VALID,-0.0339617,VALID,18.9608,VALID,150,VALID,0,
2008-07-16, 02:05:00,VALID,915.5,VALID,0,VALID,100,VALID,-0.0679233,VALID,18.9474,VALID,150,VALID,0.293717,
2008-07-16, 02:06:00,VALID,915.494,VALID,0,VALID,100,VALID,-0.0509425,VALID,18.9508,VALID,150,VALID,0.0102307,
2008-07-16, 02:07:00,VALID,915.477,VALID,0,VALID,100,VALID,-0.0509425,VALID,18.9416,VALID,150,VALID,0,
2008-07-16, 02:08:00,VALID,915.466,VALID,0,VALID,100,VALID,-0.0509425,VALID,18.9416,VALID,150,VALID,0,
2008-07-16, 02:09:00,VALID,915.454,VALID,0,VALID,100,VALID,0,VALID,18.9414,VALID,150,VALID,0,
2008-07-16, 02:10:00,VALID,915.438,VALID,0,VALID,100,VALID,-0.0339617,VALID,18.9307,VALID,150,VALID,0,
2008-07-16, 02:11:00,VALID,915.44,VALID,0,VALID,100,VALID,-0.0169808,VALID,18.9476,VALID,150,VALID,0,
2008-07-16, 02:12:00,VALID,915.438,VALID,0,VALID,100,VALID,-0.0339617,VALID,18.9543,VALID,150,VALID,0,
2008-07-16, 02:13:00,VALID,915.429,VALID,0,VALID,100,VALID,-0.0509425,VALID,18.9406,VALID,149,VALID,0,
2008-07-16, 02:14:00,VALID,915.427,VALID,0,VALID,100,VALID,-0.0339617,VALID,18.9177,VALID,149,VALID,0,
2008-07-16, 02:15:00,VALID,915.437,VALID,0,VALID,100,VALID,-0.0509425,VALID,18.8952,VALID,142,VALID,0,
2008-07-16, 02:16:00,VALID,915.44,VALID,0,VALID,100,VALID,-0.0509425,VALID,18.8797,VALID,111,VALID,0.243253,
2008-07-16, 02:17:00,VALID,915.432,VALID,0,VALID,100,VALID,-0.0509425,VALID,18.8531,VALID,111,VALID,0.532774,
2008-07-16, 02:18:00,VALID,915.427,VALID,0,VALID,100,VALID,-0.0849042,VALID,18.8438,VALID,111,VALID,0.454397,
2008-07-16, 02:19:00,VALID,915.41,VALID,0,VALID,100,VALID,-0.0509425,VALID,18.8438,VALID,111,VALID,0.53561,
2008-07-16, 02:20:00,VALID,915.398,VALID,0,VALID,100,VALID,-0.0509425,VALID,18.8376,VALID,111,VALID,0.00628811,
2008-07-16, 02:21:00,VALID,915.366,VALID,0,VALID,100,VALID,-0.0509425,VALID,18.8308,VALID,111,VALID,0,
2008-07-16, 02:22:00,VALID,915.343,VALID,0,VALID,100,VALID,-0.0679233,VALID,18.8178,VALID,111,VALID,0,
2008-07-16, 02:23:00,VALID,915.335,VALID,0,VALID,100,VALID,-0.0679233,VALID,18.8049,VALID,111,VALID,0,
2008-07-16, 02:24:00,VALID,915.317,VALID,0,VALID,100,VALID,-0.101885,VALID,18.7956,VALID,111,VALID,0,
2008-07-16, 02:25:00,VALID,915.289,VALID,0,VALID,100,VALID,-0.0679233,VALID,18.7859,VALID,111,VALID,0,
2008-07-16, 02:26:00,VALID,915.29,VALID,0,VALID,100,VALID,-0.135847,VALID,18.7739,VALID,111,VALID,0,
2008-07-16, 02:27:00,VALID,915.26,VALID,0,VALID,100,VALID,-0.101885,VALID,18.7542,VALID,111,VALID,0,
2008-07-16, 02:28:00,VALID,915.235,VALID,0,VALID,100,VALID,-0.169808,VALID,18.7683,VALID,111,VALID,0,
2008-07-16, 02:29:00,VALID,915.214,VALID,0,VALID,100,VALID,-0.186789,VALID,18.7581,VALID,111,VALID,0,
2008-07-16, 02:30:00,VALID,915.204,VALID,0,VALID,100,VALID,-0.135847,VALID,18.7678,VALID,111,VALID,0,
2008-07-16, 02:31:00,VALID,915.189,VALID,0,VALID,100,VALID,-0.20377,VALID,18.7447,VALID,111,VALID,0,
2008-07-16, 02:32:00,VALID,915.196,VALID,0,VALID,100,VALID,-0.135847,VALID,18.6856,VALID,111,VALID,0,
2008-07-16, 02:33:00,VALID,915.189,VALID,0,VALID,100,VALID,-0.0679233,VALID,18.6464,VALID,111,VALID,0,
2008-07-16, 02:34:00,VALID,915.188,VALID,0,VALID,100,VALID,-0.0509425,VALID,18.6105,VALID,111,VALID,0,
2008-07-16, 02:35:00,VALID,915.188,VALID,0,VALID,100,VALID,-0.0849042,VALID,18.5811,VALID,111,VALID,0,
2008-07-16, 02:36:00,VALID,915.175,VALID,0,VALID,100,VALID,-0.0509425,VALID,18.5523,VALID,111,VALID,0,
2008-07-16, 02:37:00,VALID,915.169,VALID,0,VALID,100,VALID,-0.0679233,VALID,18.5486,VALID,111,VALID,0,
2008-07-16, 02:38:00,VALID,915.156,VALID,0,VALID,100,VALID,-0.0339617,VALID,18.5359,VALID,111,VALID,0,
2008-07-16, 02:39:00,VALID,915.154,VALID,0,VALID,100,VALID,-0.0339617,VALID,18.5099,VALID,111,VALID,0,
2008-07-16, 02:40:00,VALID,915.153,VALID,0,VALID,100,VALID,-0.0679233,VALID,18.4805,VALID,111,VALID,0,
2008-07-16, 02:41:00,VALID,915.147,VALID,0,VALID,100,VALID,-0.0339617,VALID,18.4511,VALID,111,VALID,0,
2008-07-16, 02:42:00,VALID,915.123,VALID,0,VALID,100,VALID,-0.0679233,VALID,18.4448,VALID,111,VALID,0,
2008-07-16, 02:43:00,VALID,915.121,VALID,0,VALID,100,VALID,-0.0679233,VALID,18.4515,VALID,129,VALID,0.504102,
2008-07-16, 02:44:00,VALID,915.111,VALID,0,VALID,100,VALID,-0.0509425,VALID,18.4578,VALID,144,VALID,0.601953,
2008-07-16, 02:45:00,VALID,915.099,VALID,0,VALID,100,VALID,-0.0679233,VALID,18.4518,VALID,158,VALID,0.533454,
2008-07-16, 02:46:00,VALID,915.09,VALID,0,VALID,100,VALID,-0.0339617,VALID,18.4356,VALID,170,VALID,0,
2008-07-16, 02:47:00,VALID,915.07,VALID,0,VALID,100,VALID,-0.0849042,VALID,18.3932,VALID,170,VALID,0,
2008-07-16, 02:48:00,VALID,915.059,VALID,0,VALID,100,VALID,-0.0169808,VALID,18.367,VALID,170,VALID,0,
2008-07-16, 02:49:00,VALID,915.037,VALID,0,VALID,100,VALID,-0.0339617,VALID,18.3443,VALID,170,VALID,0,
2008-07-16, 02:50:00,VALID,915.018,VALID,0,VALID,100,VALID,-0.0849042,VALID,18.341,VALID,170,VALID,0,
2008-07-16, 02:51:00,VALID,915.012,VALID,0,VALID,100,VALID,-0.0849042,VALID,18.3315,VALID,170,VALID,0,
2008-07-16, 02:52:00,VALID,914.992,VALID,0,VALID,100,VALID,-0.101885,VALID,18.3155,VALID,170,VALID,0,
2008-07-16, 02:53:00,VALID,914.981,VALID,0,VALID,100,VALID,-0.0339617,VALID,18.2887,VALID,170,VALID,0,
2008-07-16, 02:54:00,VALID,914.978,VALID,0,VALID,100,VALID,-0.0679233,VALID,18.2919,VALID,170,VALID,0,
2008-07-16, 02:55:00,VALID,914.996,VALID,0,VALID,100,VALID,-0.0339617,VALID,18.2794,VALID,170,VALID,0,
2008-07-16, 02:56:00,VALID,915.013,VALID,0,VALID,100,VALID,-0.0169808,VALID,18.237,VALID,170,VALID,0,
2008-07-16, 02:57:00,VALID,915.028,VALID,0,VALID,100,VALID,-0.0339617,VALID,18.2305,VALID,170,VALID,0,
2008-07-16, 02:58:00,VALID,915.047,VALID,0,VALID,100,VALID,-0.0849042,VALID,18.2565,VALID,170,VALID,0,
2008-07-16, 02:59:00,VALID,915.056,VALID,0,VALID,100,VALID,-0.0339617,VALID,18.2368,VALID,170,VALID,0,
2008-07-16, 03:00:00,VALID,915.066,VALID,0,VALID,100,VALID,-0.0509425,VALID,18.2013,VALID,170,VALID,0,
2008-07-16, 03:01:00,VALID,915.064,VALID,0,VALID,100,VALID,-0.0339617,VALID,18.1654,VALID,170,VALID,0,
2008-07-16, 03:02:00,VALID,915.064,VALID,0,VALID,100,VALID,-0.0509425,VALID,18.1494,VALID,170,VALID,0,
2008-07-16, 03:03:00,VALID,915.063,VALID,0,VALID,100,VALID,-0.0339617,VALID,18.1365,VALID,170,VALID,0,
2008-07-16, 03:04:00,VALID,915.045,VALID,0,VALID,100,VALID,-0.0169808,VALID,18.1103,VALID,170,VALID,0,
2008-07-16, 03:05:00,VALID,915.026,VALID,0,VALID,100,VALID,-0.0509425,VALID,18.1103,VALID,170,VALID,0,
2008-07-16, 03:06:00,VALID,915.022,VALID,0,VALID,100,VALID,-0.0169808,VALID,18.1427,VALID,170,VALID,0,
2008-07-16, 03:07:00,VALID,915.001,VALID,0,VALID,100,VALID,-0.0509425,VALID,18.1886,VALID,170,VALID,0,
2008-07-16, 03:08:00,VALID,915,VALID,0,VALID,100,VALID,-0.0339617,VALID,18.2268,VALID,170,VALID,0,
2008-07-16, 03:09:00,VALID,914.985,VALID,0,VALID,100,VALID,-0.0339617,VALID,18.2599,VALID,170,VALID,0,
2008-07-16, 03:10:00,VALID,914.977,VALID,0,VALID,100,VALID,-0.0339617,VALID,18.247,VALID,170,VALID,0,
2008-07-16, 03:11:00,VALID,914.974,VALID,0,VALID,100,VALID,-0.0849042,VALID,18.1891,VALID,170,VALID,0,
2008-07-16, 03:12:00,VALID,914.966,VALID,0,VALID,100,VALID,-0.135847,VALID,18.1279,VALID,158,VALID,0,
2008-07-16, 03:13:00,VALID,914.946,VALID,0,VALID,100,VALID,-0.135847,VALID,18.1664,VALID,146,VALID,0,
2008-07-16, 03:14:00,VALID,914.94,VALID,0,VALID,100,VALID,-0.118866,VALID,18.1733,VALID,146,VALID,0,
2008-07-16, 03:15:00,VALID,914.935,VALID,0,VALID,100,VALID,-0.135847,VALID,18.1536,VALID,146,VALID,0,
2008-07-16, 03:16:00,VALID,914.93,VALID,0,VALID,100,VALID,-0.118866,VALID,18.1404,VALID,146,VALID,0,
2008-07-16, 03:17:00,VALID,914.914,VALID,0,VALID,100,VALID,-0.186789,VALID,18.1441,VALID,146,VALID,0,
2008-07-16, 03:18:00,VALID,914.904,VALID,0,VALID,100,VALID,-0.152827,VALID,18.1374,VALID,146,VALID,0,
2008-07-16, 03:19:00,VALID,914.886,VALID,0,VALID,100,VALID,-0.169808,VALID,18.1636,VALID,146,VALID,0,
2008-07-16, 03:20:00,VALID,914.88,VALID,0,VALID,100,VALID,-0.152827,VALID,18.1664,VALID,146,VALID,0,
2008-07-16, 03:21:00,VALID,914.879,VALID,0,VALID,100,VALID,-0.169808,VALID,18.1733,VALID,146,VALID,0,
2008-07-16, 03:22:00,VALID,914.875,VALID,0,VALID,100,VALID,-0.118866,VALID,18.1631,VALID,139,VALID,0,
2008-07-16, 03:23:00,VALID,914.882,VALID,0,VALID,100,VALID,-0.118866,VALID,18.1501,VALID,131,VALID,0.708507,
2008-07-16, 03:24:00,VALID,914.874,VALID,0,VALID,100,VALID,-0.186789,VALID,18.1283,VALID,123,VALID,1.1502,
2008-07-16, 03:25:00,VALID,914.865,VALID,0,VALID,100,VALID,-0.152827,VALID,18.0982,VALID,126,VALID,0.899503,
2008-07-16, 03:26:00,VALID,914.866,VALID,0,VALID,100,VALID,-0.101885,VALID,18.0818,VALID,123,VALID,0.994531,
2008-07-16, 03:27:00,VALID,914.856,VALID,0,VALID,100,VALID,-0.101885,VALID,18.0825,VALID,128,VALID,1.00942,
2008-07-16, 03:28:00,VALID,914.839,VALID,0,VALID,100,VALID,-0.101885,VALID,18.0593,VALID,137,VALID,1.07961,
2008-07-16, 03:29:00,VALID,914.834,VALID,0,VALID,100,VALID,-0.0849042,VALID,18.0526,VALID,145,VALID,0.585574,
2008-07-16, 03:30:00,VALID,914.821,VALID,0,VALID,100,VALID,-0.0849042,VALID,18.0399,VALID,146,VALID,0.806974,
2008-07-16, 03:31:00,VALID,914.829,VALID,0,VALID,100,VALID,-0.0679233,VALID,18.0589,VALID,138,VALID,0.99375,
2008-07-16, 03:32:00,VALID,914.808,VALID,0,VALID,100,VALID,-0.0849042,VALID,18.082,VALID,134,VALID,0.882631,
2008-07-16, 03:33:00,VALID,914.817,VALID,0,VALID,100,VALID,-0.101885,VALID,18.0883,VALID,134,VALID,0.928267,
2008-07-16, 03:34:00,VALID,914.8,VALID,0,VALID,100,VALID,-0.0509425,VALID,18.0885,VALID,130,VALID,0.904204,
2008-07-16, 03:35:00,VALID,914.803,VALID,0,VALID,100,VALID,-0.101885,VALID,18.0915,VALID,125,VALID,1.05432,
2008-07-16, 03:36:00,VALID,914.8,VALID,0,VALID,100,VALID,-0.0679233,VALID,18.1112,VALID,124,VALID,1.04474,
2008-07-16, 03:37:00,VALID,914.785,VALID,0,VALID,100,VALID,-0.101885,VALID,18.1013,VALID,122,VALID,0.91915,
2008-07-16, 03:38:00,VALID,914.78,VALID,0,VALID,100,VALID,-0.0509425,VALID,18.1177,VALID,126,VALID,1.02743,
2008-07-16, 03:39:00,VALID,914.781,VALID,0,VALID,100,VALID,-0.0509425,VALID,18.1175,VALID,134,VALID,0.926417,
2008-07-16, 03:40:00,VALID,914.794,VALID,0,VALID,100,VALID,-0.101885,VALID,18.1534,VALID,133,VALID,0.917289,
2008-07-16, 03:41:00,VALID,914.784,VALID,0,VALID,100,VALID,-0.0849042,VALID,18.1629,VALID,131,VALID,0.999814,
2008-07-16, 03:42:00,VALID,914.793,VALID,0,VALID,100,VALID,-0.118866,VALID,18.1629,VALID,133,VALID,0.695131,
2008-07-16, 03:43:00,VALID,914.779,VALID,0,VALID,100,VALID,-0.0679233,VALID,18.1796,VALID,139,VALID,0.707403,
2008-07-16, 03:44:00,VALID,914.791,VALID,0,VALID,100,VALID,-0.0679233,VALID,18.2055,VALID,140,VALID,0.805432,
2008-07-16, 03:45:00,VALID,914.807,VALID,0,VALID,100,VALID,-0.101885,VALID,18.228,VALID,132,VALID,0.839286,
2008-07-16, 03:46:00,VALID,914.816,VALID,0,VALID,100,VALID,-0.0849042,VALID,18.2639,VALID,134,VALID,1.02397,